Tracking 19199 objects as of 25-Jun-2018
HD Live streaming from Space Station
objects crossing your sky now

FENGYUN 1C DEB

Track FENGYUN 1C DEB now!
10-day predictions


NORAD ID: 30951
Int'l Code: 1999-025BAR
Perigee: 618.1 km
Apogee: 809.7 km
Inclination: 99.9 °
Period: 98.9 minutes
Semi major axis: 7084 km
RCS: 0.0121 m2 (small)
Launch date: May 10, 1999
Source: People's Republic of China (PRC)
Launch site: Taiyaun Space Center, China (TSC)

Note: This is SATELLITE DEBRIS
aabbcc
Your satellite tracking list
Your tracking list is empty




NASA's NSSDC Master Catalog

Two Line Element Set (TLE):
1 30951U 99025BAR 18175.43918312 +.00001030 +00000-0 +22181-3 0  9997
2 30951 099.8940 165.2206 0135207 110.0118 042.9856 14.55805727597066
Source of the keplerian elements: AFSPC